sat.trackr.live / text

‹ back to catalog

STARLINK-31697

NORAD 59583 · 2024-076V

PAYLOAD ACTIVE UNKNOWN

§ Identity

Operator
Country
US
Launch date
2024-04-23
Launch site
AFETR
Launch vehicle
Mass (kg)
RCS (m²)

Purposes: comms

External: N2YO · Heavens-Above · Gunter

§ Orbital elements

Epoch: 2026-09-21T12:20:03.926112Z

Period
94.27 min
Inclination
43.0037°
Eccentricity
0.0001150
Mean motion
15.27575100 rev/d
Perigee alt
482.3 km
Apogee alt
483.9 km
Semi-major
6,861.2 km
B*
-3.2610e-6
RAAN
342.8846°
Arg perigee
273.4836°
Mean anomaly
86.5884°
Rev number
13,636

§ Raw data

STARLINK-316971 59583U 24076V   26264.51393433 -.00000352  00000+0 -32610-5 0  99982 59583  43.0037 342.8846 0001150 273.4836  86.5884 15.27575100136365

JSON: /api/v1/satellites/59583 · /tle

For live sub-satellite position, see the globe view (requires WebGL).

§ Visibility from observer

Set your observer location to see the next 7 days of passes ≥ 10°. The values pass through the URL so the page stays shareable.

No JS? Fill the form by hand. The geolocation button needs JavaScript.